When you browse on this site, cookies collect data to enhance your experience and personalize the content and advertising you see.
Visit our Privacy Policy to learn more. By continuing to use the site, you agree to this use of cookies and data.
  • In Lithuania
  • List of Countries
  • For 7 days
  • Water Temperature
  • Satellite Maps
  • Weather Map
  • Weather Widgets
  • user-avatar
    Login

    Hourly Weather Kirov

    Today, 11 December, Tuesday

    Time Temperature Precipitation Wind Pressure Humidity
    00:00 +1°C° 0.4 mm 6 mps 752 mmHg 94%
    01:00 +1°C° 0 mm 5 mps 752 mmHg 94%
    02:00 +1°C° 0 mm 5 mps 752 mmHg 94%
    03:00 +2°C° 0 mm 3 mps 752 mmHg 96%
    04:00 +1°C° 0 mm 3 mps 752 mmHg 96%
    05:00 0°C° 0 mm 4 mps 752 mmHg 96%
    06:00 0°C° 0 mm 5 mps 752 mmHg 96%
    07:00 0°C° 0 mm 5 mps 751 mmHg 96%
    08:00 0°C° 0 mm 5 mps 751 mmHg 96%
    09:00 0°C° 0 mm 5 mps 751 mmHg 96%
    10:00 +1°C° 0 mm 6 mps 751 mmHg 95%
    11:00 +1°C° 0 mm 6 mps 751 mmHg 93%
    12:00 0°C° 0 mm 7 mps 750 mmHg 92%
    13:00 0°C° 0 mm 7 mps 750 mmHg 92%
    14:00 +2°C° 0 mm 7 mps 750 mmHg 92%
    15:00 +1°C° 0 mm 5 mps 750 mmHg 91%
    16:00 +1°C° 0.3 mm 5 mps 750 mmHg 92%
    17:00 +1°C° 0.3 mm 5 mps 750 mmHg 93%
    18:00 +1°C° 0.3 mm 5 mps 750 mmHg 93%
    19:00 +1°C° 0.8 mm 6 mps 750 mmHg 94%
    20:00 +1°C° 0.8 mm 6 mps 750 mmHg 94%
    21:00 +1°C° 0.8 mm 6 mps 750 mmHg 94%
    22:00 +2°C° 0.1 mm 6 mps 750 mmHg 94%
    23:00 +2°C° 0.1 mm 6 mps 750 mmHg 94%

    Tomorrow, 12 December, Wednesday

    Time Temperature Precipitation Wind Pressure Humidity
    00:00 +2°C° 0.1 mm 6 mps 749 mmHg 94%
    01:00 +2°C° 0 mm 6 mps 749 mmHg 93%
    02:00 +3°C° 0 mm 6 mps 749 mmHg 92%
    03:00 +3°C° 0 mm 7 mps 749 mmHg 91%
    04:00 +3°C° 0.1 mm 7 mps 748 mmHg 89%
    05:00 +4°C° 0.1 mm 7 mps 748 mmHg 88%
    06:00 +4°C° 0.1 mm 7 mps 748 mmHg 86%
    07:00 +4°C° 0 mm 7 mps 748 mmHg 85%
    08:00 +3°C° 0 mm 7 mps 749 mmHg 84%
    09:00 +3°C° 0 mm 7 mps 749 mmHg 83%
    10:00 +3°C° 0 mm 7 mps 749 mmHg 80%
    11:00 +3°C° 0 mm 7 mps 749 mmHg 77%
    12:00 +4°C° 0 mm 8 mps 749 mmHg 75%
    13:00 +3°C° 0 mm 7 mps 750 mmHg 76%
    14:00 +3°C° 0 mm 7 mps 750 mmHg 77%
    15:00 +3°C° 0 mm 6 mps 750 mmHg 78%
    16:00 +3°C° 0 mm 6 mps 751 mmHg 79%
    17:00 +2°C° 0 mm 6 mps 751 mmHg 81%
    18:00 +2°C° 0 mm 6 mps 752 mmHg 82%
    19:00 +2°C° 0 mm 5 mps 752 mmHg 83%
    20:00 +1°C° 0 mm 5 mps 752 mmHg 84%
    21:00 +1°C° 0 mm 4 mps 753 mmHg 85%
    22:00 +1°C° 0 mm 4 mps 753 mmHg 85%
    23:00 +1°C° 0 mm 4 mps 754 mmHg 86%

    Day after tomorrow, 13 December, Thursday

    Time Temperature Precipitation Wind Pressure Humidity
    00:00 +1°C° 0 mm 4 mps 754 mmHg 86%
    01:00 +1°C° 0 mm 4 mps 754 mmHg 86%
    02:00 +1°C° 0 mm 3 mps 755 mmHg 87%
    03:00 +1°C° 0 mm 3 mps 755 mmHg 87%
    04:00 +1°C° 0 mm 3 mps 755 mmHg 87%
    05:00 +1°C° 0 mm 3 mps 756 mmHg 87%
    06:00 0°C° 0 mm 3 mps 756 mmHg 88%
    07:00 0°C° 0 mm 3 mps 756 mmHg 88%
    08:00 0°C° 0 mm 3 mps 757 mmHg 87%
    09:00 +1°C° 0 mm 2 mps 757 mmHg 87%
    10:00 +1°C° 0 mm 3 mps 757 mmHg 82%
    11:00 +1°C° 0 mm 4 mps 758 mmHg 77%
    12:00 +3°C° 0 mm 4 mps 758 mmHg 72%
    13:00 +3°C° 0 mm 4 mps 758 mmHg 72%
    14:00 +3°C° 0 mm 4 mps 759 mmHg 71%
    15:00 +3°C° 0 mm 3 mps 759 mmHg 70%
    16:00 +2°C° 0 mm 3 mps 759 mmHg 74%
    17:00 +2°C° 0 mm 3 mps 760 mmHg 77%
    18:00 +2°C° 0 mm 2 mps 760 mmHg 80%
    19:00 +2°C° 0 mm 2 mps 760 mmHg 81%
    20:00 +2°C° 0 mm 2 mps 761 mmHg 82%
    21:00 +1°C° 0 mm 2 mps 761 mmHg 83%
    22:00 +1°C° 0 mm 2 mps 761 mmHg 84%
    23:00 +1°C° 0 mm 2 mps 761 mmHg 85%

    14 December, Friday

    Time Temperature Precipitation Wind Pressure Humidity
    00:00 +2°C° 0 mm 1 mps 761 mmHg 86%
    01:00 +2°C° 0 mm 1 mps 762 mmHg 86%
    02:00 +2°C° 0 mm 1 mps 762 mmHg 85%
    03:00 +2°C° 0 mm 1 mps 762 mmHg 85%
    04:00 +2°C° 0 mm 1 mps 762 mmHg 85%
    05:00 +1°C° 0 mm 2 mps 762 mmHg 84%
    06:00 +1°C° 0 mm 2 mps 762 mmHg 83%
    07:00 +1°C° 0 mm 2 mps 762 mmHg 83%
    08:00 +1°C° 0 mm 2 mps 762 mmHg 83%
    09:00 +1°C° 0 mm 2 mps 762 mmHg 83%
    10:00 +2°C° 0 mm 2 mps 762 mmHg 80%
    11:00 +3°C° 0 mm 2 mps 762 mmHg 77%
    12:00 +4°C° 0 mm 2 mps 762 mmHg 74%
    13:00 +4°C° 0 mm 2 mps 762 mmHg 75%
    14:00 +5°C° 0 mm 1 mps 762 mmHg 77%
    15:00 +5°C° 0 mm 1 mps 762 mmHg 78%
    16:00 +4°C° 0 mm 1 mps 762 mmHg 81%
    17:00 +3°C° 0 mm 0 mps 763 mmHg 84%
    18:00 +2°C° 0 mm 0 mps 763 mmHg 87%
    19:00 +2°C° 0 mm 0 mps 763 mmHg 87%
    20:00 +1°C° 0 mm 0 mps 763 mmHg 88%
    21:00 +1°C° 0 mm 0 mps 763 mmHg 88%
    22:00 +1°C° 0 mm 0 mps 763 mmHg 89%
    23:00 +1°C° 0 mm 0 mps 764 mmHg 89%

    15 December, Saturday

    Time Temperature Precipitation Wind Pressure Humidity
    00:00 +1°C° 0 mm 0 mps 764 mmHg 89%
    01:00 +1°C° 0 mm 0 mps 764 mmHg 89%
    02:00 +1°C° 0 mm 0 mps 764 mmHg 90%
    03:00 +1°C° 0 mm 0 mps 764 mmHg 90%
    04:00 +1°C° 0 mm 0 mps 764 mmHg 90%
    05:00 +1°C° 0 mm 0 mps 765 mmHg 90%
    06:00 +2°C° 0 mm 1 mps 765 mmHg 91%
    07:00 +1°C° 0 mm 0 mps 765 mmHg 90%
    08:00 +1°C° 0 mm 0 mps 765 mmHg 90%
    09:00 +1°C° 0 mm 0 mps 766 mmHg 89%
    10:00 +3°C° 0 mm 1 mps 766 mmHg 84%
    11:00 +4°C° 0 mm 1 mps 766 mmHg 79%
    12:00 +4°C° 0 mm 1 mps 766 mmHg 73%
    13:00 +4°C° 0 mm 1 mps 766 mmHg 73%
    14:00 +5°C° 0 mm 1 mps 766 mmHg 74%
    15:00 +5°C° 0 mm 1 mps 766 mmHg 74%
    16:00 +4°C° 0 mm 1 mps 766 mmHg 77%
    17:00 +3°C° 0 mm 1 mps 767 mmHg 80%
    18:00 +2°C° 0 mm 1 mps 767 mmHg 84%
    19:00 +2°C° 0 mm 1 mps 767 mmHg 84%
    20:00 +2°C° 0 mm 1 mps 767 mmHg 85%
    21:00 +1°C° 0 mm 1 mps 767 mmHg 86%
    22:00 +1°C° 0 mm 1 mps 767 mmHg 87%
    23:00 -1°C° 0 mm 2 mps 767 mmHg 88%

    16 December, Sunday

    Time Temperature Precipitation Wind Pressure Humidity
    00:00 -1°C° 0 mm 2 mps 768 mmHg 89%
    01:00 -1°C° 0 mm 2 mps 768 mmHg 89%
    02:00 -2°C° 0 mm 2 mps 768 mmHg 89%
    03:00 -2°C° 0 mm 2 mps 768 mmHg 90%
    04:00 -2°C° 0 mm 2 mps 768 mmHg 90%
    05:00 -2°C° 0 mm 3 mps 768 mmHg 89%
    06:00 -2°C° 0 mm 3 mps 768 mmHg 89%
    07:00 -2°C° 0 mm 3 mps 768 mmHg 88%
    08:00 -2°C° 0 mm 3 mps 768 mmHg 87%
    09:00 -2°C° 0 mm 3 mps 769 mmHg 86%
    10:00 -3°C° 0 mm 4 mps 768 mmHg 82%
    11:00 -2°C° 0 mm 4 mps 768 mmHg 78%
    12:00 -1°C° 0 mm 4 mps 768 mmHg 74%
    13:00 -1°C° 0 mm 4 mps 768 mmHg 74%
    14:00 -1°C° 0 mm 4 mps 768 mmHg 73%
    15:00 -1°C° 0 mm 4 mps 768 mmHg 73%
    16:00 -2°C° 0 mm 4 mps 768 mmHg 76%
    17:00 -3°C° 0 mm 4 mps 768 mmHg 78%
    18:00 -3°C° 0 mm 4 mps 768 mmHg 81%
    19:00 -3°C° 0 mm 4 mps 768 mmHg 81%
    20:00 -3°C° 0 mm 4 mps 768 mmHg 81%
    21:00 -4°C° 0 mm 4 mps 768 mmHg 81%
    22:00 -4°C° 0 mm 4 mps 768 mmHg 81%
    23:00 -4°C° 0 mm 4 mps 768 mmHg 81%
    Show more